Location: Newark
(55.7500°N, 37.6333°E)
Time: 13:09:53
(UTC+00:00)

N. Korean satellite - Visible Passes

Search period start: 19 October 2019 00:00
Search period end: 29 October 2019 00:00
Orbit: 455 x 508 km, 97.2° (Epoch: 18 October)

Date Brightness Start Highest point End Pass type
(mag) Time Alt. Az. Time Alt. Az. Time Alt. Az.
19 Oct 10.5 15:56:21 10° W 15:57:02 10° W 15:57:43 10° WNW visible
20 Oct 8.2 03:11:48 10° NNE 03:15:14 41° E 03:18:42 10° S visible
20 Oct 9.8 15:29:00 10° SW 15:31:27 18° W 15:33:55 10° NW visible
21 Oct 9.3 02:46:48 10° NE 02:49:47 24° E 02:52:47 10° SSE visible
21 Oct 8.7 15:02:50 10° SSW 15:05:56 31° W 15:09:06 10° NNW visible
22 Oct 10.1 02:22:14 10° NE 02:24:15 14° E 02:26:17 10° ESE visible
23 Oct 7.2 03:29:10 10° NNE 03:32:46 63° ESE 03:36:25 10° S visible
23 Oct 10.2 15:47:32 10° WSW 15:49:06 13° W 15:50:40 10° WNW visible
24 Oct 8.5 03:04:00 10° NNE 03:07:23 35° E 03:10:46 10° SSE visible
24 Oct 9.5 15:20:47 10° SW 15:23:31 21° W 15:26:17 10° NW visible
25 Oct 9.6 02:39:05 10° NE 02:41:53 21° E 02:44:43 10° SE visible
25 Oct 8.3 14:54:47 10° SSW 14:58:01 37° W 15:01:20 10° NNW visible
26 Oct 10.3 02:14:44 10° ENE 02:16:19 12° E 02:17:53 10° ESE visible
27 Oct 7.6 03:21:18 10° NNE 03:24:53 53° E 03:28:31 10° S visible
27 Oct 10.0 15:39:02 10° SW 15:41:07 15° W 15:43:13 10° NW visible
28 Oct 8.9 02:56:12 10° NNE 02:59:28 30° E 03:02:45 10° SSE visible
28 Oct 9.1 15:12:36 10° SSW 15:15:33 25° W 15:18:34 10° NW visible
